User: anonymous   Login
Location: Caltech
(34.1382°N, 118.1253°W)
Time: 14:34:26
(UTC-07:00)
Language:

HO-68 - Orbit

View from above orbital plane
View from above orbital plane
View from above satellite
View from above satellite

Ground track
Ground track

The orbit data is extracted from the following two-line orbital elements,

1 36122U 09072B   15126.51618154 -.00000060  00000-0 -43517-4 0  9990
2 36122 100.1982 172.8020 0007121 212.4364 147.6310 13.16326523258975
Epoch (UTC): 06 May 2015 12:23:18
Eccentricity: 0.0007121
inclination: 100.1982°
perigee height: 1193 km
apogee height: 1204 km
right ascension of ascending node: 172.8020°
argument of perigee: 212.4364°
revolutions per day: 13.16326523
mean anomaly at epoch: 147.6310°
orbit number at epoch: 25897

The dashed part of the orbit path shows where the satellite is in the earth's shadow,  

DLR